DW0148 Weather Reports


time (UTC)temp
F
wind
direction
speed
knots
gust
knots
rain 1hr
in
rain 24hr
in
rain mn
in
humidity
%
barometer
mb
20180120090746 32 5 0.0 0.9 0.00 0.01 0.00 78 1027.6
20180120090245 32 5 0.0 0.9 0.00 0.01 0.00 78 1027.6
20180120085745 32 5 0.0 0.9 0.00 0.01 0.00 77 1027.6
20180120085243 32 5 0.0 0.0 0.00 0.01 0.00 78 1027.6
20180120084742 32 5 0.0 0.0 0.00 0.01 0.00 78 1027.6
20180120084241 32 5 0.0 0.9 0.00 0.01 0.00 78 1027.6
20180120083740 32 4 0.0 0.9 0.00 0.01 0.00 78 1027.6
20180120083239 32 5 0.0 0.9 0.00 0.01 0.00 77 1027.6
20180120082738 31 4 0.0 0.9 0.00 0.01 0.00 78 1027.6
20180120082238 31 348 0.0 0.9 0.00 0.01 0.00 77 1027.6
20180120081736 31 348 0.0 0.9 0.00 0.01 0.00 75 1027.6
20180120081133 32 348 0.0 0.9 0.00 0.01 0.00 78 1027.6
20180120080632 32 349 0.0 0.9 0.00 0.01 0.00 78 1027.6
20180120080131 31 18 0.0 0.0 0.00 0.01 0.00 77 1027.6
20180120075630 31 18 0.0 0.9 0.00 0.01 0.00 77 1027.6
20180120075129 32 18 0.0 0.9 0.00 0.01 0.00 78 1027.6
20180120074558 31 18 0.0 0.9 0.00 0.01 0.00 77 1027.6
20180120074056 31 18 0.0 0.9 0.00 0.01 0.00 77 1027.6
20180120073556 31 8 0.0 0.9 0.00 0.01 0.00 77 1027.6
20180120073055 31 8 0.0 0.9 0.00 0.01 0.00 77 1027.6
20180120072554 31 8 0.9 0.9 0.00 0.01 0.00 76 1027.3
20180120072053 31 8 0.0 0.9 0.00 0.01 0.00 76 1027.6
20180120071552 31 22 0.9 0.9 0.00 0.01 0.00 75 1027.6
20180120071051 31 52 0.0 0.0 0.00 0.01 0.00 77 1027.6
20180120070550 31 53 0.0 0.0 0.00 0.01 0.00 78 1027.6
20180120070049 31 52 0.0 0.0 0.00 0.01 0.00 78 1027.3
20180120065548 31 52 0.0 0.0 0.00 0.01 0.00 78 1027.3
20180120065047 31 52 0.0 0.0 0.00 0.01 0.00 76 1027.3
20180120064546 31 52 0.0 0.0 0.00 0.01 0.00 77 1027.3
20180120064045 31 52 0.0 0.0 0.00 0.01 0.00 78 1027.3
20180120063544 31 52 0.0 0.0 0.00 0.01 0.00 78 1027.3
20180120063043 31 51 0.0 0.0 0.00 0.01 0.00 78 1027.6
20180120062511 31 51 0.0 0.0 0.00 0.01 0.00 78 1027.6
20180120061940 31 51 0.0 0.0 0.00 0.01 0.00 79 1027.6
20180120061438 31 51 0.0 0.9 0.00 0.01 0.00 78 1027.6
20180120060937 31 51 0.0 0.9 0.00 0.01 0.00 78 1027.6
20180120060436 31 51 0.0 0.9 0.00 0.01 0.00 77 1027.6
20180120055935 31 51 0.9 0.9 0.00 0.01 0.00 77 1027.3
20180120055434 31 57 0.0 0.0 0.00 0.01 0.00 75 1027.3
20180120054902 30 56 0.0 0.0 0.00 0.01 0.00 74 1027.3
20180120054401 30 57 0.0 0.0 0.00 0.01 0.00 76 1027.3
20180120053900 30 57 0.0 0.0 0.00 0.01 0.00 76 1027.3
20180120053359 30 56 0.0 0.0 0.00 0.01 0.00 76 1027.3
20180120052858 30 56 0.0 0.9 0.00 0.01 0.00 76 1027.3
20180120052357 30 56 0.0 0.9 0.00 0.01 0.00 78 1027.3
20180120051856 30 56 0.0 0.9 0.00 0.01 0.00 77 1027.3
20180120051355 30 55 0.0 0.9 0.00 0.01 0.00 79 1027.3
20180120050854 29 56 0.0 0.9 0.00 0.01 0.00 80 1027.6
20180120050353 29 56 0.0 0.9 0.00 0.01 0.00 79 1027.6
20180120045852 29 56 0.0 0.9 0.00 0.01 0.01 80 1027.6
20180120045351 29 74 0.0 0.9 0.00 0.01 0.01 79 1027.6
20180120044851 29 74 0.0 0.9 0.00 0.01 0.01 78 1027.3
20180120044350 29 74 0.0 0.9 0.00 0.01 0.01 80 1027.6
20180120043849 28 74 0.0 0.9 0.00 0.01 0.01 79 1027.6
20180120043348 28 74 0.9 0.9 0.00 0.01 0.01 79 1027.6
20180120042847 28 73 0.0 0.9 0.00 0.01 0.01 79 1027.6
20180120042346 27 74 0.9 0.9 0.00 0.01 0.01 81 1027.6
20180120041814 27 74 0.0 0.9 0.00 0.01 0.01 81 1027.6
20180120041313 26 74 0.9 0.9 0.00 0.01 0.01 81 1027.6
20180120040812 26 74 0.9 0.9 0.00 0.01 0.01 81 1027.6
20180120040311 25 74 0.0 0.0 0.00 0.01 0.01 82 1027.6
20180120035810 25 74 0.0 0.0 0.00 0.01 0.01 82 1027.6
20180120035309 25 74 0.0 0.0 0.00 0.01 0.01 81 1027.6
20180120034808 25 74 0.0 0.9 0.00 0.01 0.01 82 1027.6
20180120034307 25 74 0.0 0.9 0.00 0.01 0.01 81 1027.6
20180120033704 25 74 0.0 0.9 0.00 0.01 0.01 80 1027.3
20180120033203 25 73 0.0 0.9 0.00 0.01 0.01 79 1027.3
20180120032701 25 74 0.0 0.9 0.00 0.01 0.01 79 1027.3
20180120032130 25 74 0.9 0.9 0.00 0.01 0.01 80 1026.9
20180120031628 25 72 0.0 2.6 0.00 0.01 0.01 80 1026.9
20180120031128 25 72 0.0 2.6 0.00 0.01 0.01 79 1026.9
20180120030627 25 77 0.0 0.9 0.00 0.01 0.01 79 1026.9
20180120030126 25 77 0.9 0.9 0.00 0.01 0.01 80 1026.9
20180120025625 25 77 0.0 0.9 0.00 0.01 0.01 78 1026.9
20180120025124 25 77 0.0 0.9 0.00 0.01 0.01 78 1026.9
20180120024623 25 77 0.9 0.9 0.00 0.01 0.01 78 1026.9
20180120024122 25 77 0.0 0.9 0.00 0.01 0.01 78 1026.6
20180120023621 25 77 0.0 0.9 0.00 0.01 0.01 78 1026.6
20180120023120 25 80 0.9 0.9 0.00 0.01 0.01 78 1026.6
20180120022619 25 80 0.0 0.0 0.00 0.01 0.01 78 1026.6
20180120022118 26 80 0.0 0.9 0.00 0.01 0.01 78 1026.6
20180120021617 26 80 0.0 0.9 0.00 0.01 0.01 77 1026.6
20180120021116 26 81 0.0 0.9 0.00 0.01 0.01 76 1026.6
20180120020615 26 81 0.9 0.9 0.00 0.01 0.01 75 1026.6
20180120020114 27 82 0.9 0.9 0.00 0.01 0.01 75 1026.6
20180120015613 27 82 0.0 0.9 0.00 0.01 0.01 73 1026.6
20180120015112 28 82 0.0 0.9 0.00 0.01 0.01 72 1026.2
20180120014611 27 82 0.9 0.9 0.00 0.01 0.01 73 1026.2
20180120014110 27 82 0.9 0.9 0.00 0.01 0.01 75 1026.2
20180120013609 26 82 0.9 0.9 0.00 0.01 0.01 76 1026.2
20180120013109 27 82 0.9 0.9 0.00 0.01 0.01 77 1026.2
20180120012607 26 82 0.9 0.9 0.00 0.01 0.01 77 1026.6
20180120012107 26 82 0.9 0.9 0.00 0.01 0.01 76 1026.6
20180120011535 27 82 0.0 0.0 0.00 0.01 0.01 76 1026.6
20180120011034 27 82 0.0 0.9 0.00 0.01 0.01 76 1026.6
20180120010533 27 82 0.0 0.9 0.00 0.01 0.01 75 1026.6
20180120010031 27 82 0.0 0.9 0.00 0.01 0.01 75 1026.9
20180120005531 27 82 0.9 0.9 0.00 0.01 0.01 74 1026.6
20180120005030 28 82 0.0 0.9 0.00 0.01 0.01 74 1026.6
20180120004529 28 82 0.9 0.9 0.00 0.01 0.01 74 1026.6
20180120004028 28 82 0.0 0.0 0.00 0.01 0.01 73 1026.6
20180120003527 28 82 0.0 0.9 0.00 0.01 0.01 73 1026.6
20180120003026 28 82 0.0 0.9 0.00 0.01 0.01 74 1026.6
20180120002525 28 82 0.9 0.9 0.00 0.01 0.01 72 1026.6
20180120002024 28 82 0.9 0.9 0.00 0.01 0.01 73 1026.6
20180120001523 28 82 0.9 0.9 0.00 0.01 0.01 73 1026.6
20180120001023 29 82 0.0 0.9 0.00 0.01 0.01 71 1026.6
20180120000522 29 82 0.9 0.9 0.00 0.01 0.01 70 1026.6
20180120000021 29 82 0.0 0.9 0.00 0.01 0.01 69 1026.6
20180119235520 29 82 0.0 0.9 0.00 0.01 0.01 69 1026.2
20180119235019 30 82 0.9 0.9 0.00 0.01 0.01 68 1026.2
20180119234518 30 82 0.9 0.9 0.00 0.01 0.01 66 1026.2
20180119233913 31 82 0.9 0.9 0.00 0.01 0.01 65 1026.2
20180119233340 31 82 0.9 0.9 0.00 0.01 0.01 65 1026.2
20180119232839 31 82 0.0 0.9 0.00 0.01 0.01 65 1026.2
20180119232339 32 82 0.0 0.9 0.00 0.01 0.01 63 1026.2
20180119231838 32 82 0.0 0.9 0.00 0.01 0.01 63 1026.2
20180119231337 33 82 0.0 0.9 0.00 0.01 0.01 63 1026.2
20180119230836 33 82 0.9 0.9 0.00 0.01 0.01 61 1026.2
20180119230335 34 82 0.0 0.9 0.00 0.01 0.01 60 1026.2
20180119225834 35 82 0.0 0.9 0.00 0.01 0.01 58 1026.2
20180119225333 36 82 0.0 0.9 0.00 0.01 0.01 55 1026.2
20180119224832 37 82 0.9 0.9 0.00 0.01 0.01 52 1026.2
20180119224331 38 82 0.9 0.9 0.00 0.01 0.01 50 1026.2
20180119223830 39 82 0.9 2.6 0.00 0.01 0.01 46 1026.2
20180119223329 41 82 0.9 2.6 0.00 0.01 0.01 44 1026.2
20180119222828 42 67 0.0 3.5 0.00 0.01 0.01 42 1026.2
20180119222327 43 87 0.9 3.5 0.00 0.01 0.01 40 1026.2
20180119221826 44 106 0.9 4.3 0.00 0.01 0.01 37 1026.6
20180119221325 45 114 0.9 4.3 0.00 0.01 0.01 34 1026.6
20180119220824 45 159 0.9 3.5 0.00 0.01 0.01 33 1026.6
20180119220322 46 161 1.7 4.3 0.00 0.01 0.01 33 1026.6
20180119215750 46 210 2.6 4.3 0.00 0.01 0.01 30 1026.6
20180119215249 46 203 1.7 4.3 0.00 0.01 0.01 33 1026.9
20180119214748 47 190 1.7 5.2 0.00 0.01 0.01 33 1026.9
20180119214216 47 211 0.9 2.6 0.00 0.01 0.01 33 1026.9
20180119213643 47 217 0.9 2.6 0.00 0.01 0.01 33 1026.9
20180119213142 47 217 0.9 2.6 0.00 0.01 0.01 33 1026.9
20180119212641 47 221 1.7 2.6 0.00 0.01 0.01 37 1026.9
20180119212140 46 192 0.9 3.5 0.00 0.01 0.01 36 1026.9
20180119211640 46 224 1.7 3.5 0.00 0.01 0.01 34 1026.9
20180119211139 46 225 0.9 2.6 0.00 0.01 0.01 33 1026.9
20180119210638 46 223 1.7 3.5 0.00 0.01 0.01 33 1026.9
20180119210137 46 222 1.7 3.5 0.00 0.01 0.01 34 1026.9
20180119205635 46 222 0.9 1.7 0.00 0.01 0.01 34 1026.9
20180119205134 46 241 0.0 2.6 0.00 0.01 0.01 34 1026.9
20180119204634 46 284 1.7 2.6 0.00 0.01 0.01 35 1026.9
20180119204133 46 250 0.9 3.5 0.00 0.01 0.01 35 1026.9
20180119203530 46 302 0.9 3.5 0.00 0.01 0.01 34 1027.3
20180119202957 46 255 0.9 4.3 0.00 0.01 0.01 33 1027.3
20180119202425 46 306 0.9 4.3 0.00 0.01 0.01 34 1027.3
20180119201924 46 246 0.9 2.6 0.00 0.01 0.01 34 1027.3
20180119201423 45 162 0.9 4.3 0.00 0.01 0.01 36 1027.3
20180119200851 45 182 1.7 4.3 0.00 0.01 0.01 35 1027.3
20180119200350 45 227 1.7 5.2 0.00 0.01 0.01 35 1027.6
20180119195849 45 220 1.7 5.2 0.00 0.01 0.01 35 1027.6
20180119195348 45 239 1.7 4.3 0.00 0.01 0.01 35 1027.6
20180119194847 44 267 1.7 3.5 0.00 0.01 0.01 37 1027.6
20180119194315 44 220 1.7 3.5 0.00 0.01 0.01 39 1027.6
20180119193814 44 297 0.9 2.6 0.00 0.01 0.01 37 1027.6
20180119193313 44 274 0.9 3.5 0.00 0.01 0.01 38 1027.6
20180119192811 44 256 0.9 4.3 0.00 0.01 0.01 40 1027.6
20180119192310 43 283 0.9 4.3 0.00 0.01 0.01 40 1027.6
20180119191738 43 248 1.7 5.2 0.00 0.01 0.01 39 1027.9
20180119191237 43 169 1.7 5.2 0.00 0.01 0.01 40 1027.9
20180119190736 42 191 1.7 3.5 0.00 0.01 0.01 42 1027.9
20180119190235 42 307 0.9 3.5 0.01 0.01 0.01 42 1028.3
20180119185734 42 226 1.7 4.3 0.01 0.01 0.01 44 1028.3
20180119185233 41 240 1.7 4.3 0.01 0.01 0.01 43 1028.3
20180119184732 41 269 1.7 4.3 0.01 0.01 0.01 44 1028.6
20180119184231 41 234 1.7 5.2 0.01 0.01 0.01 46 1028.6
20180119183730 41 197 1.7 5.2 0.01 0.01 0.01 45 1028.6
20180119183229 41 238 1.7 4.3 0.01 0.01 0.01 47 1028.6
20180119182728 40 198 1.7 4.3 0.01 0.01 0.01 50 1028.6
20180119182227 40 227 1.7 4.3 0.01 0.01 0.01 50 1028.6
20180119181726 40 161 2.6 4.3 0.01 0.01 0.01 48 1028.6
20180119181225 39 153 2.6 5.2 0.01 0.01 0.01 49 1029.0
20180119180653 38 198 1.7 7.0 0.01 0.01 0.01 50 1029.0
20180119180153 38 149 2.6 7.0 0.00 0.00 0.00 50 1029.3
20180119175652 38 182 2.6 7.0 0.00 0.00 0.00 51 1029.3
20180119175150 38 152 3.5 7.0 0.00 0.00 0.00 50 1029.6
20180119174650 38 162 1.7 5.2 0.00 0.00 0.00 52 1029.6
20180119174149 37 159 3.5 5.2 0.00 0.00 0.00 55 1029.6
20180119173648 37 284 1.7 3.5 0.00 0.00 0.00 54 1030.0
20180119173147 37 266 1.7 4.3 0.00 0.00 0.00 57 1030.0
20180119172646 36 180 1.7 4.3 0.00 0.00 0.00 59 1030.0
20180119172146 36 135 1.7 5.2 0.00 0.00 0.00 59 1030.0
20180119171644 36 163 1.7 5.2 0.00 0.00 0.00 60 1030.3
20180119171143 36 229 1.7 3.5 0.00 0.00 0.00 57 1030.3
20180119170642 35 191 1.7 3.5 0.00 0.00 0.00 58 1030.3
20180119170141 35 168 1.7 3.5 0.00 0.00 0.00 59 1030.6
20180119165640 35 216 1.7 3.5 0.00 0.00 0.00 57 1030.6
20180119165139 34 200 1.7 4.3 0.00 0.00 0.00 57 1030.6
20180119164638 34 242 0.9 4.3 0.00 0.00 0.00 59 1031.0
20180119164137 34 187 1.7 4.3 0.00 0.00 0.00 59 1031.0
20180119163636 33 165 1.7 4.3 0.00 0.00 0.00 59 1031.0
20180119163104 33 163 1.7 3.5 0.00 0.00 0.00 61 1031.3
20180119162603 33 193 1.7 4.3 0.00 0.00 0.00 62 1031.3
20180119162102 33 203 1.7 5.2 0.00 0.00 0.00 63 1031.3
20180119161601 33 181 1.7 5.2 0.00 0.00 0.00 65 1031.3
20180119161100 33 224 1.7 3.5 0.00 0.00 0.00 64 1031.7
20180119160559 33 135 1.7 2.6 0.00 0.00 0.00 67 1031.3
20180119160058 32 236 0.9 2.6 0.00 0.00 0.00 70 1031.7
20180119155556 32 238 0.9 2.6 0.00 0.00 0.00 70 1031.7
20180119155055 31 6 0.9 3.5 0.00 0.00 0.00 70 1031.7
20180119154555 29 224 0.9 3.5 0.00 0.00 0.00 73 1031.7
20180119154054 28 275 0.9 3.5 0.00 0.00 0.00 75 1031.7
20180119153523 28 349 0.9 3.5 0.00 0.00 0.00 77 1031.7
20180119153021 27 347 1.7 4.3 0.00 0.00 0.00 80 1031.7
20180119152520 27 338 1.7 4.3 0.00 0.00 0.00 80 1031.7
20180119152019 26 2 1.7 3.5 0.00 0.00 0.00 82 1031.7
20180119151518 25 272 0.9 0.9 0.00 0.00 0.00 84 1031.7
20180119151017 24 274 0.9 0.9 0.00 0.00 0.00 86 1031.7
20180119150516 24 343 0.9 1.7 0.00 0.00 0.00 87 1031.7
20180119150015 23 32 0.9 2.6 0.00 0.00 0.00 88 1031.7
20180119145514 23 355 0.9 2.6 0.00 0.00 0.00 89 1031.7
20180119145014 22 355 1.7 3.5 0.00 0.00 0.00 90 1031.7
20180119144510 21 37 0.9 3.5 0.00 0.00 0.00 91 1032.0
20180119144009 21 346 2.6 3.5 0.00 0.00 0.00 92 1032.0
20180119143508 20 331 0.9 2.6 0.00 0.00 0.00 92 1032.0
20180119143006 19 342 0.9 2.6 0.00 0.00 0.00 91 1032.0
20180119142434 19 8 1.7 2.6 0.00 0.00 0.00 91 1032.0
20180119141932 18 13 0.9 0.9 0.00 0.00 0.00 92 1032.0
20180119141431 17 56 0.9 0.9 0.00 0.00 0.00 91 1032.0
20180119140930 16 56 0.0 0.9 0.00 0.00 0.00 91 1032.0
20180119140429 16 57 0.0 0.9 0.00 0.00 0.00 91 1032.0
20180119135928 15 57 0.9 0.9 0.00 0.00 0.00 90 1032.0
20180119135427 15 56 0.0 0.9 0.00 0.00 0.00 90 1032.3
20180119134926 14 38 0.9 0.9 0.00 0.00 0.00 91 1032.3
20180119134425 14 37 0.9 0.9 0.00 0.00 0.00 91 1032.0
20180119133924 13 9 0.9 0.9 0.00 0.00 0.00 90 1032.0
20180119133423 13 9 0.0 0.9 0.00 0.00 0.00 90 1032.0
20180119132923 13 9 0.0 0.9 0.00 0.00 0.00 90 1032.0
20180119132421 13 75 0.9 0.9 0.00 0.00 0.00 91 1032.0
20180119131921 13 75 0.9 0.9 0.00 0.00 0.00 91 1032.0
20180119131348 13 79 0.9 0.9 0.00 0.00 0.00 91 1032.0
20180119130847 13 60 0.0 0.9 0.00 0.00 0.00 91 1032.0
20180119130346 13 60 0.0 0.9 0.00 0.00 0.00 90 1032.0
20180119125845 13 60 0.0 0.9 0.00 0.00 0.00 90 1032.0
20180119125345 13 60 0.0 0.9 0.00 0.00 0.00 90 1032.3
20180119124843 13 60 0.9 0.9 0.00 0.00 0.00 90 1032.0
20180119124311 13 61 0.0 0.9 0.00 0.00 0.00 91 1032.0
20180119123739 13 60 0.0 0.9 0.00 0.00 0.00 91 1032.0
20180119123136 13 60 0.0 0.9 0.00 0.00 0.00 91 1032.0
20180119122635 13 60 0.0 0.9 0.00 0.00 0.00 90 1032.0
20180119122134 13 60 0.0 0.9 0.00 0.00 0.00 90 1032.0
20180119121633 13 61 0.0 0.9 0.00 0.00 0.00 90 1031.7
20180119121131 13 60 0.0 0.9 0.00 0.00 0.00 90 1031.7
20180119120630 13 60 0.0 0.9 0.00 0.00 0.00 91 1031.7
20180119120130 13 60 0.9 0.9 0.00 0.00 0.00 91 1031.7
20180119115628 13 60 0.0 0.9 0.00 0.00 0.00 91 1031.3
20180119115128 13 60 0.0 0.9 0.00 0.00 0.00 90 1031.3
20180119114556 13 60 0.0 0.9 0.00 0.00 0.00 90 1031.3
20180119114054 13 61 0.0 0.9 0.00 0.00 0.00 90 1031.3
20180119113553 13 60 0.9 0.9 0.00 0.00 0.00 90 1031.3
20180119113052 13 60 0.0 0.9 0.00 0.00 0.00 90 1031.3
20180119112520 13 60 0.0 0.9 0.00 0.00 0.00 90 1031.3
20180119112019 13 60 0.0 0.9 0.00 0.00 0.00 90 1031.3
20180119111518 13 60 0.0 0.9 0.00 0.00 0.00 90 1031.3
20180119111017 13 60 0.0 0.9 0.00 0.00 0.00 90 1031.3
20180119110516 13 60 0.9 0.9 0.00 0.00 0.00 90 1031.3
20180119110015 13 60 0.0 0.9 0.00 0.00 0.00 90 1031.3
20180119105514 14 60 0.0 0.9 0.00 0.00 0.00 90 1031.0
20180119104942 14 60 0.0 0.9 0.00 0.00 0.00 90 1031.0
20180119104440 13 61 0.9 0.9 0.00 0.00 0.00 90 1031.0
20180119103939 14 60 0.0 0.0 0.00 0.00 0.00 89 1031.0
20180119103408 14 61 0.0 0.0 0.00 0.00 0.00 89 1030.6
20180119102835 14 60 0.0 0.9 0.00 0.00 0.00 89 1030.6
20180119102333 14 60 0.0 0.9 0.00 0.00 0.00 89 1031.0
20180119101801 14 61 0.0 0.9 0.00 0.00 0.00 89 1031.0
20180119101300 14 60 0.9 0.9 0.00 0.00 0.00 89 1031.0
20180119100759 14 60 0.9 0.9 0.00 0.00 0.00 89 1031.0
20180119100258 14 60 0.0 0.9 0.00 0.00 0.00 89 1031.0
20180119095757 14 60 0.0 0.9 0.00 0.00 0.00 89 1031.0
20180119095256 14 60 0.0 1.7 0.00 0.00 0.00 89 1031.0
20180119094755 15 63 0.0 2.6 0.00 0.00 0.00 89 1030.6
20180119094254 15 63 0.9 2.6 0.00 0.00 0.00 89 1030.6
20180119093753 15 74 0.9 0.9 0.00 0.00 0.00 89 1030.6
20180119093251 15 80 0.0 0.9 0.00 0.00 0.00 90 1030.6
20180119092750 15 82 0.0 0.9 0.00 0.00 0.00 90 1030.6
20180119092249 14 81 0.9 0.9 0.00 0.00 0.00 90 1031.0
20180119091748 14 46 0.0 0.9 0.00 0.00 0.00 90 1031.0
20180119091216 14 47 0.0 0.9 0.00 0.00 0.00 90 1031.0